Preview of NWS' New Version of Forecast
This preview is not operational and should not be used for support decisions.

Regional Weather Roundup (RWR)

Issued by National Weather Service (NWS)

                            
000
ASUS46 KSEW 170610
RWRWA 

WASHINGTON REGIONAL WEATHER ROUNDUP
NATIONAL WEATHER SERVICE SEATTLE WA
1100 PM PDT TUE JUL 16 2019

NOTE:"FAIR" INDICATES FEW OR NO CLOUDS BELOW 12,000 FEET WITH NO 
SIGNIFICANT WEATHER AND/OR OBSTRUCTIONS TO VISIBILITY.

WAZ507-509-555>559-170700-
SEATTLE, TACOMA, EVERETT, AND VICINITY
  
CITY           SKY/WX    TMP DP  RH WIND       PRES   REMARKS
EVERETT        PTCLDY    61  53  75 CALM      29.95F                  
6HR MIN TEMP:  61; 6HR MAX TEMP:  75;                                

BOEING FIELD   CLOUDY    68  54  60 S3        29.95R                  
6HR MIN TEMP:  68; 6HR MAX TEMP:  80;                                

RENTON         MOCLDY    69  56  62 S7        29.94R                  
6HR MIN TEMP:  69; 6HR MAX TEMP:  81;                                

SEATAC AIRPORT MOCLDY    67  55  65 SW13      29.96R                  
6HR MIN TEMP:  67; 6HR MAX TEMP:  80;                                

JBLM-MCCHORD   CLOUDY    66  60  81 W8        29.96S                  
6HR MIN TEMP:  66; 6HR MAX TEMP:  79;                                

PUYALLUP       CLOUDY    66  61  82 SW6       29.97F                  
BREMERTON      PTCLDY    63  56  78 S7        29.95S                  
6HR MIN TEMP:  63; 6HR MAX TEMP:  79;                                

JBLM-FT LEWIS  NOT AVBL                                               
TACOMA NARROWS PTCLDY    63  56  78 SW10      29.96S                  
6HR MIN TEMP:  63; 6HR MAX TEMP:  76;                                

$$
 
WAZ001-503-506-510-514-515-170700-
NORTH INTERIOR
  
CITY           SKY/WX    TMP DP  RH WIND       PRES   REMARKS
BELLINGHAM     CLOUDY    65  55  70 S8        29.90S                  
6HR MIN TEMP:  65; 6HR MAX TEMP:  73;                                

FRIDAY HARBOR  CLOUDY    56  51  84 CALM      29.91F                  
6HR MIN TEMP:  56; 6HR MAX TEMP:  67;                                

EASTSOUND      CLOUDY    64  55  72 S6        29.88F                  
PORT ANGELES   MOCLDY    59  55  87 W10       29.93F                  
6HR MIN TEMP:  59; 6HR MAX TEMP:  70;                                

EDIZ HOOK      FAIR      58  54  86 W10       29.92F                  
6HR MIN TEMP:  57; 6HR MAX TEMP:  65;                                

PORT TOWNSEND  CLOUDY    64  55  72 CALM      29.92S                  
NAS WHIDBEY    MOCLDY    61  52  72 S3        29.96S                  
6HR MIN TEMP:  60; 6HR MAX TEMP:  65;                                

ARLINGTON      MOCLDY    62  53  72 CALM      29.94S                  
6HR MIN TEMP:  62; 6HR MAX TEMP:  79;                                

BURLINGTON     CLOUDY    61  55  82 S5        29.92S                  
$$
 
WAZ020-022-039-040-504-511-512-170700-
SOUTHWEST INTERIOR
  
CITY           SKY/WX    TMP DP  RH WIND       PRES   REMARKS
SHELTON        PTCLDY    62  56  80 SW10      29.94S                  
6HR MIN TEMP:  62; 6HR MAX TEMP:  79;                                

OLYMPIA        PTCLDY    62  57  83 S7        29.97S                  
6HR MIN TEMP:  62; 6HR MAX TEMP:  73;                                

CHEHALIS       CLOUDY    63  59  88 CALM      29.98F                  
KELSO          PTCLDY    64  57  78 CALM      30.00S                  
6HR MIN TEMP:  64; 6HR MAX TEMP:  77;                                

VANCOUVER      CLOUDY    67  54  63 N6        29.98S                  
6HR MIN TEMP:  67; 6HR MAX TEMP:  80;                                

SCAPPOOSE, OR  MOCLDY    63  56  78 N5        29.98R                  
6HR MIN TEMP:  63; 6HR MAX TEMP:  77;                                

PORTLAND, OR   MOCLDY    67  55  65 N5        29.99R                  
6HR MIN TEMP:  67; 6HR MAX TEMP:  81;                                

$$
 
WAZ021-516-517-170700-
WASHINGTON COAST
  
CITY           SKY/WX    TMP DP  RH WIND       PRES   REMARKS
FORKS          CLOUDY    62  58  86 CALM      29.95F                  
6HR MIN TEMP:  61; 6HR MAX TEMP:  70;                                

HOQUIAM        CLOUDY    64  60  87 W9        29.98F                  
6HR MIN TEMP:  64; 6HR MAX TEMP:  70;                                

ASTORIA, OR    PTCLDY    61  57  87 SW3       29.99F                  
6HR MIN TEMP:  60; 6HR MAX TEMP:  67;                                

$$
 
WAZ019-023-024-040-567>569-170700-
CASCADE MOUNTAINS AND COLUMBIA GORGE
  
CITY           SKY/WX    TMP DP  RH WIND       PRES   REMARKS
STAMPEDE PASS  LGT RAIN  53  50  89 VRB3      30.01F FOG              
6HR MIN TEMP:  53; 6HR MAX TEMP:  62;                                

TROUTDALE, OR  CLOUDY    68  56  65 VRB5      29.98R                  
6HR MIN TEMP:  68; 6HR MAX TEMP:  81;                                

HOOD RIVER, OR MOCLDY    68  55  64 W3        29.93S                  
THE DALLES, OR PTCLDY    73  54  51 W13G23    29.88F                  
6HR MIN TEMP:  71; 6HR MAX TEMP:  84;                                

$$

WAZ026-027-041>044-520-521-170700-
EAST SLOPES
  
CITY           SKY/WX    TMP DP  RH WIND       PRES   REMARKS
OMAK           PTCLDY    68  51  54 W6        29.82S                  
6HR MIN TEMP:  65; 6HR MAX TEMP:  84;                                

WENATCHEE      CLEAR     70  46  42 W7        29.86R                  
6HR MIN TEMP:  70; 6HR MAX TEMP:  83;                                

ELLENSBURG     PTCLDY    65  50  58 NW10      29.90F                  
6HR MIN TEMP:  64; 6HR MAX TEMP:  79;                                

YAKIMA         PTCLDY    66  50  56 W5        29.89S                  
6HR MIN TEMP:  66; 6HR MAX TEMP:  84;                                

SUNNYSIDE ARPT CLEAR     69  54  58 SW5       29.85                   
6HR MIN TEMP:  68; 6HR MAX TEMP:  85;                                

YAKIMA TC      FAIR      66  47  49 CALM      29.88S                  
6HR MIN TEMP:  66; 6HR MAX TEMP:  83;                                

$$

WAZ028-034-035-170700-
COLUMBIA BASIN
  
CITY           SKY/WX    TMP DP  RH WIND       PRES   REMARKS
EPHRATA        CLEAR     72  46  39 NW14      29.83S                  
6HR MIN TEMP:  67; 6HR MAX TEMP:  84;                                

MOSES LAKE     CLEAR     71  52  50 W8        29.85R                  
6HR MIN TEMP:  71; 6HR MAX TEMP:  87;                                

PASCO          CLEAR     69  52  54 CALM      29.83S                  
6HR MIN TEMP:  67; 6HR MAX TEMP:  89;                                

RICHLAND ARPT  CLEAR     71  50  47 NW5       29.84R                  
6HR MIN TEMP:  71; 6HR MAX TEMP:  90;                                

HERMISTON, OR  PTCLDY    73  48  41 SW15      29.85S                  
6HR MIN TEMP:  73; 6HR MAX TEMP:  88;                                

$$

WAZ036>038-170700-
NORTHEAST WASHINGTON
  
CITY           SKY/WX    TMP DP  RH WIND       PRES   REMARKS
SPOKANE GEIGER PTCLDY    66  52  60 SE5       29.90F                  
6HR MIN TEMP:  65; 6HR MAX TEMP:  74;                                

SPOKANE FELTS  PTCLDY    63  53  70 N3        29.89F                  
6HR MIN TEMP:  63; 6HR MAX TEMP:  77;                                

FAIRCHILD AFB  CLEAR     60  53  77 CALM      29.90F                  
6HR MIN TEMP:  60; 6HR MAX TEMP:  74;                                

COEURDALENE,ID CLOUDY    64  53  67 E6        29.91F                  
6HR MIN TEMP:  62; 6HR MAX TEMP:  75;                                

DEER PARK      CLEAR     56  52  86 NW5       29.90F                  
6HR MIN TEMP:  56; 6HR MAX TEMP:  76; 6HR PCP:  0.01;                

$$

WAZ029>033-170700-
SOUTHEAST WASHINGTON
  
CITY           SKY/WX    TMP DP  RH WIND       PRES   REMARKS
PULLMAN        CLEAR     57  45  64 CALM      29.93F                  
6HR MIN TEMP:  57; 6HR MAX TEMP:  78;                                

LEWISTON, ID   CLEAR     69  44  40 S6        29.87F                  
6HR MIN TEMP:  69; 6HR MAX TEMP:  84;                                

WALLA WALLA    CLEAR     73  43  33 SE9       29.87S                  
6HR MIN TEMP:  71; 6HR MAX TEMP:  84;                                

PENDLETON, OR  CLEAR     69  43  38 W7        29.89S                  
6HR MIN TEMP:  69; 6HR MAX TEMP:  84;                                

$$